Wind_Speed
5 6 7 8 9 10 11 10 10 10 9 9 8 7 9 8 8 10 9 7 9 10 12 14 6 7 8 2 4 4 4 2 3 4 2 7 5 7 3 4 4 5 6 6 25
4 6 6 7 8 10 10 10 10 10 10 8 6 6 9 14 15 17 9 8 7 8 10 14 7 11 3 2 4 4 3 3 2 2 3 5 7 7 5 7 6 6 11 23 26
3 4 5 7 8 9 10 10 10 8 9 8 4 5 8 6 4 5 10 8 8 8 6 9 8 4 4 3 3 5 3 2 4 4 5 6 8 6 6 4 2 2 5 13 16
3 4 5 6 7 9 10 9 9 8 8 8 2 4 3 3 1 6 10 8 9 10 9 6 4 3 2 3 3 3 4 3 3 3 3 4 5 8 4 5 3 3 3 5 8
3 4 6 6 7 10 9 8 8 7 8 5 3 4 1 5 3 6 7 7 7 9 10 5 6 4 3 3 3 1 4 5 6 6 3 4 4 5 9 6 2 5 7 6 7
5 5 5 7 7 9 9 8 7 6 5 4 4 3 2 4 4 7 6 8 9 11 11 10 3 2 2 3 3 2 4 7 6 5 3 3 4 4 2 1 5 5 4 6 9
5 5 5 7 8 8 7 7 5 4 5 5 6 6 7 3 3 6 8 10 10 11 3 7 6 5 3 2 4 3 4 7 5 5 3 2 6 5 4 2 4 6 5 7 11
6 5 5 7 8 6 4 3 3 4 5 5 5 5 3 2 4 5 3 6 7 6 5 5 5 3 3 3 3 2 3 5 5 6 2 6 7 5 3 1 3 4 4 7 8
6 5 5 6 7 4 3 3 4 4 4 5 5 3 2 2 2 6 5 4 5 6 4 3 3 2 3 3 4 5 1 2 5 0 2 2 7 5 4 5 7 5 4 7 7
6 6 6 7 4 1 3 3 4 5 5 5 3 4 2 2 2 3 5 3 2 2 4 3 4 3 4 5 2 1 3 5 4 3 3 6 11 7 8 5 9 5 5 7 8
7 6 5 5 3 3 5 2 2 4 10 3 2 5 2 3 2 5 4 4 2 2 3 4 5 2 3 3 2 1 1 3 5 8 5 5 8 11 8 8 6 5 5 7 8
8 7 5 4 2 5 2 2 2 4 5 3 2 4 5 2 2 3 5 3 2 2 2 5 2 1 0 3 4 3 3 6 7 4 7 10 16 17 12 9 6 8 7 7 6
10 8 4 3 4 5 1 3 5 5 4 3 2 4 1 3 3 2 5 3 2 1 3 3 1 3 3 3 4 3 3 4 5 6 5 8 7 6 4 7 8 6 7 6 7
10 8 3 3 3 5 2 3 6 2 4 1 1 2 1 1 3 3 4 1 1 2 2 2 2 2 3 2 1 2 4 4 6 6 2 6 5 6 6 5 4 5 6 6 7
10 8 4 5 2 3 3 5 6 1 3 3 1 2 1 3 5 4 2 3 2 1 4 2 3 3 2 2 2 2 3 4 3 2 4 5 2 7 3 2 3 6 6 6 6
11 8 5 7 3 3 7 7 3 6 5 2 3 3 2 1 2 2 1 1 1 3 1 2 2 2 1 2 2 3 3 5 1 2 3 5 3 5 3 4 3 3 6 7 7
13 10 9 8 3 8 10 3 5 4 4 3 4 4 2 3 2 2 3 1 3 4 2 1 0 2 2 2 3 5 5 4 6 4 5 3 3 7 4 4 4 5 5 6 6
14 10 9 9 8 12 5 5 4 3 5 3 4 4 4 3 2 2 3 1 3 4 1 3 4 1 0 2 3 1 5 4 4 3 7 2 5 4 0 4 5 2 5 3 5
16 9 6 9 12 11 4 3 8 7 7 8 4 5 1 2 3 3 3 2 2 2 6 3 1 2 3 2 3 3 1 2 3 0 3 4 5 5 4 3 3 3 4 4 4
18 10 5 10 13 5 4 5 4 3 6 2 4 3 6 4 4 5 5 1 4 2 1 2 1 1 1 2 2 3 1 3 3 2 5 5 9 5 4 6 6 5 6 6 5
12 4 5 12 10 4 4 6 3 2 2 5 4 3 3 6 7 4 6 1 3 3 3 3 3 2 1 3 5 3 2 1 2 3 4 3 7 1 6 6 7 8 8 9 8
11 3 7 15 3 2 4 6 4 4 3 2 3 4 5 4 4 5 7 1 4 5 6 0 4 2 6 1 4 3 5 5 4 5 4 3 18 9 5 4 7 9 9 8 7
6 3 2 2 5 4 1 3 3 4 4 5 3 3 2 5 3 2 4 4 5 2 5 4 1 3 8 5 4 2 4 3 3 2 7 3 10 6 14 9 8 9 12 10 8
4 4 1 1 2 6 6 4 5 1 4 4 4 4 4 3 4 4 3 2 3 3 4 4 3 6 6 6 3 3 1 2 5 2 7 13 19 20 19 10 11 12 10 12 12
3 5 6 7 8 3 6 9 7 7 1 4 2 4 7 4 3 3 2 2 5 3 3 4 5 3 5 5 2 5 8 8 8 11 5 20 13 18 16 10 9 6 7 8 8
6 4 1 3 13 9 9 9 11 5 8 5 4 9 5 7 8 9 8 4 5 3 2 3 2 3 4 5 1 4 9 12 12 9 8 13 13 7 7 7 6 8 6 6 4
7 3 5 9 9 11 8 8 11 12 3 2 8 6 6 6 5 5 5 6 8 8 4 4 4 3 6 4 3 7 6 5 5 5 6 2 7 6 9 12 8 8 5 5 5
Wind_Direction
37 26 12 8 359 352 351 349 348 348 351 355 8 77 96 79 81 64 46 349 338 5 355 341 338 343 329 31 357 36 61 20 17 55 336 6 23 339 297 15 327 37 58 342 17
34 14 17 3 0 350 349 343 347 349 352 353 13 104 112 103 78 56 11 1 6 15 22 2 354 345 33 45 2 70 85 57 4 62 1 1 22 336 14 340 341 345 5 21 21
18 16 12 6 358 350 345 343 344 343 348 340 358 123 129 137 85 2 356 4 15 30 15 315 313 332 59 34 29 337 99 29 37 84 49 348 336 321 2 328 144 8 356 14 23
339 3 9 5 356 350 343 344 340 342 337 331 23 123 120 54 123 350 351 8 23 23 358 323 326 8 75 79 43 44 11 87 352 69 43 319 299 324 273 260 105 11 45 40 33
321 351 357 357 356 342 341 338 338 346 343 338 102 114 51 52 73 348 6 21 32 15 17 357 38 13 54 64 32 45 355 348 342 303 235 247 271 253 276 284 1 355 41 38 38
317 340 348 345 348 340 336 332 328 347 12 79 84 48 8 78 53 360 23 33 40 32 37 32 27 340 39 79 84 271 326 290 276 256 260 272 275 8 246 139 21 358 26 53 42
304 324 341 339 340 339 340 343 340 25 64 74 83 59 48 143 22 47 36 45 42 27 72 29 0 44 349 59 312 301 327 320 252 211 209 75 325 235 265 82 32 357 36 52 51
280 301 328 336 335 344 355 14 37 69 78 66 57 61 82 85 76 55 33 48 48 60 62 17 14 66 51 308 324 320 31 358 329 113 107 87 277 314 248 54 285 299 60 62 56
273 301 315 336 337 347 49 74 72 60 50 44 40 46 50 87 47 31 29 58 18 30 58 16 18 91 19 52 17 9 313 275 328 181 141 171 271 276 255 268 261 286 83 74 56
265 293 313 330 346 55 107 89 80 50 28 47 54 41 3 93 50 36 44 42 36 353 2 32 38 56 23 59 198 353 3 337 317 314 273 253 269 277 286 255 245 244 97 79 70
254 283 304 328 341 122 121 65 42 17 44 64 6 105 77 109 63 41 356 331 328 26 67 9 64 57 68 85 92 60 19 265 262 277 308 253 277 289 272 288 220 228 82 68 63
252 275 295 324 137 162 149 66 135 137 95 11 65 72 70 343 104 20 354 12 25 68 62 26 90 319 138 73 64 27 320 302 297 336 349 306 298 281 287 274 181 124 82 68 50
244 266 277 329 150 154 185 145 156 143 88 22 353 94 119 6 58 32 12 346 55 44 144 137 355 83 62 7 22 321 289 313 273 333 325 331 319 341 351 66 64 77 97 82 78
235 249 255 155 187 162 182 171 161 129 74 188 238 354 201 310 71 7 8 61 31 109 54 126 84 59 22 322 154 313 345 352 352 22 300 56 288 314 303 88 90 123 118 114 91
228 234 212 181 144 190 155 153 146 128 13 138 115 313 350 105 135 9 353 14 49 43 86 188 108 76 30 346 46 212 322 288 255 298 9 321 52 275 340 28 202 208 152 133 119
215 220 187 175 193 185 150 143 118 47 262 136 119 143 102 27 67 140 67 10 111 33 12 223 143 114 41 36 27 332 335 320 63 82 32 259 146 280 286 275 283 202 173 150 136
202 198 183 174 202 164 149 114 48 140 353 242 169 152 179 157 122 165 137 163 137 82 358 98 119 91 50 54 13 45 43 343 358 4 228 211 348 245 237 293 324 241 193 171 137
183 189 188 187 164 156 140 55 117 217 207 199 127 127 150 137 103 143 114 291 230 95 77 133 329 13 306 80 167 201 133 149 235 276 279 256 247 266 184 338 359 116 164 156 118
169 170 171 182 164 161 85 91 204 201 157 146 68 101 228 113 123 119 206 173 77 103 156 149 229 333 48 358 86 306 97 189 109 333 22 258 310 319 328 347 6 110 122 187 188
159 158 165 170 161 141 83 231 200 153 125 132 143 143 163 202 141 159 198 235 147 66 121 178 58 261 305 346 13 108 266 34 3 346 297 289 307 256 326 304 294 285 240 239 232
152 132 171 162 148 58 173 214 181 110 111 146 175 127 143 167 164 189 189 324 127 137 65 126 116 286 56 206 175 33 25 10 179 171 205 268 273 198 25 28 347 303 266 236 215
156 147 171 160 115 183 166 176 143 149 44 130 107 111 145 155 139 191 196 109 144 141 144 103 138 175 228 47 88 109 164 157 145 256 229 216 275 295 62 1 356 323 315 273 217
131 113 78 348 169 212 286 131 144 138 177 161 117 107 114 151 104 152 107 352 52 108 149 185 290 31 344 357 6 149 203 198 107 77 246 217 271 279 329 350 348 341 331 329 317
131 122 151 243 242 157 146 171 150 46 141 120 123 95 102 72 28 159 123 34 43 71 87 95 99 158 193 211 124 205 270 290 133 132 270 259 283 297 311 322 314 308 312 312 301
173 194 180 181 213 184 151 158 143 165 152 135 80 197 153 122 65 150 94 90 25 110 46 110 184 159 264 262 192 220 253 251 206 236 208 276 286 289 294 294 284 270 308 319 316
147 146 172 142 146 155 188 203 166 167 149 200 172 185 146 153 182 188 138 176 182 18 106 10 227 84 299 304 100 259 249 248 253 258 259 265 272 268 286 294 291 288 293 307 320
166 136 120 152 141 174 201 170 176 133 233 197 165 125 155 173 144 113 93 109 142 141 141 123 123 81 269 331 322 316 233 198 216 206 180 238 252 330 330 326 316 319 293 289 308
Height
842 842 843 841 842 841 839 837 835 833 831 829 826 826 826 826 825 823 828 831 829 827 825 822 819 818 817 818 817 817 841 844 837 835 837 830 831 826 821 824 823 824 825 826 821
842 843 842 842 841 841 838 837 835 833 833 830 827 827 826 826 828 828 833 831 829 828 825 824 822 820 822 821 823 829 846 838 830 833 838 833 834 834 831 832 829 826 821 819 818
843 842 842 842 841 840 838 837 835 833 832 831 829 828 828 826 828 835 834 832 831 829 827 826 823 822 823 823 828 833 839 832 834 832 833 836 836 835 836 834 832 831 827 823 823
843 842 840 840 840 839 838 836 835 833 832 831 830 831 830 827 834 836 835 834 832 830 828 826 824 825 827 830 829 838 832 830 831 835 836 839 836 838 833 832 828 827 826 826 827
843 840 840 839 838 839 836 836 835 833 831 830 831 830 831 834 839 837 835 834 833 832 830 829 829 830 833 831 831 835 837 834 833 833 833 834 837 837 835 830 827 826 824 827 827
844 841 840 839 837 836 836 835 834 832 830 830 832 832 832 839 840 839 837 835 834 834 834 833 834 832 832 832 837 837 837 836 833 831 830 834 837 835 830 828 826 825 826 828 828
843 841 839 839 837 835 835 835 835 832 831 832 831 833 836 843 840 840 839 837 836 836 836 836 836 836 836 836 838 836 839 836 831 831 834 833 836 836 830 827 827 829 829 829 830
841 840 838 837 836 834 834 834 835 834 833 833 833 833 841 842 841 840 841 840 837 836 838 839 837 837 839 839 839 841 842 849 831 831 834 837 847 831 829 828 828 828 830 830 832
840 839 838 835 835 834 834 835 835 835 836 834 835 835 844 844 843 842 840 841 841 840 837 838 839 842 842 849 857 850 854 845 838 832 836 837 842 832 828 830 832 831 832 832 834
839 839 837 835 835 835 835 836 836 836 836 835 836 842 844 844 844 844 843 841 840 840 842 840 846 856 858 863 861 853 853 852 849 839 837 840 840 835 830 831 833 830 833 834 834
837 837 836 834 835 835 836 837 840 841 839 844 843 843 844 846 845 846 846 844 842 842 848 847 859 862 858 851 854 852 853 859 853 841 841 843 844 837 828 828 831 832 838 837 837
837 836 835 834 834 836 837 838 839 840 846 844 842 842 845 846 846 847 848 849 846 849 846 859 858 853 851 853 853 857 858 863 851 840 843 841 838 828 825 824 826 837 840 841 840
836 836 834 834 835 835 837 837 839 839 844 848 846 843 845 847 847 849 849 848 848 847 848 857 856 851 851 856 854 858 859 863 861 853 848 849 850 832 824 834 836 838 838 840 841
833 835 833 834 838 834 837 837 838 839 855 849 849 848 846 844 851 850 850 852 849 852 851 851 855 855 859 858 857 862 859 858 859 865 874 858 882 846 828 838 841 838 839 840 841
832 833 832 834 835 835 836 836 838 840 870 845 849 850 847 848 851 852 851 850 854 851 855 855 855 858 859 857 852 859 858 858 856 863 870 866 884 855 831 833 838 841 841 841 841
828 831 832 834 834 835 834 836 838 866 859 856 848 850 852 849 850 851 851 853 853 857 855 857 855 856 858 856 856 857 858 862 861 871 923 869 869 861 845 835 834 838 842 841 842
827 829 830 832 833 834 835 838 869 872 849 860 852 849 850 853 853 852 853 858 863 874 863 858 859 859 859 860 859 862 875 923 914 922 906 858 863 848 838 839 837 842 846 846 845
825 828 828 829 831 833 836 853 872 858 859 846 845 849 852 852 852 854 856 864 858 860 875 873 880 862 860 862 866 864 877 917 933 915 884 857 873 846 840 841 841 839 846 849 850
821 827 828 829 831 833 840 878 852 842 841 846 849 863 860 854 857 857 860 863 862 858 875 873 864 866 864 864 867 870 885 871 915 926 916 874 855 844 842 844 840 843 847 848 849
820 824 826 828 831 833 850 842 840 831 834 838 844 859 877 876 859 862 863 860 863 864 863 868 884 867 868 867 868 869 873 902 920 941 940 884 859 857 844 843 848 848 848 848 847
819 823 826 828 831 836 851 847 833 830 830 838 848 860 856 869 861 868 860 864 861 865 864 864 878 877 869 873 875 890 898 892 891 895 923 921 863 845 847 854 853 852 849 845 843
813 821 825 827 837 840 845 831 827 834 835 835 834 843 852 863 869 862 859 858 860 865 872 870 883 900 878 872 872 874 878 885 912 900 894 897 852 844 847 852 854 853 848 843 839
808 821 825 826 832 843 838 828 827 833 836 838 838 839 849 861 865 866 864 868 865 865 873 875 902 940 899 886 880 875 877 878 908 916 896 925 868 846 849 857 859 858 852 848 846
802 821 825 826 824 820 826 828 833 831 832 834 842 844 853 869 870 875 868 871 869 870 868 872 899 906 900 875 887 878 879 881 913 949 898 879 867 856 855 867 861 857 854 850 845
786 794 796 812 817 817 810 821 827 835 833 835 841 839 844 873 881 881 877 876 875 872 880 887 905 910 903 888 884 883 882 884 902 893 907 869 882 870 867 870 864 857 853 849 846
775 785 793 798 796 811 810 821 818 827 828 833 840 837 849 857 848 869 873 881 874 886 892 895 909 907 922 891 891 891 881 880 878 881 889 878 876 865 863 861 861 857 855 850 850
765 768 769 788 798 807 802 805 806 814 826 823 829 839 845 848 852 851 856 860 869 883 901 905 915 934 924 900 909 909 881 870 880 888 891 898 879 869 871 865 865 862 859 856 854